Theta_e
337 338 338 336 338 339 336 334 334 334 332 331 333 330 322 316 309 309 309 309 310 308 317 324 325 330 330 326 323 318 316 313 313 313 313 313 313 313 312 312 314 315 317 318 317 315 314 316 320 324 327 330 333 337 337 338 338 336 336 335 334 331
339 339 339 339 338 339 337 337 337 337 335 333 335 333 328 323 315 312 309 309 310 308 317 322 326 330 328 326 323 317 315 313 313 313 313 314 313 313 313 313 314 315 317 318 316 316 316 317 322 326 329 331 334 337 336 337 338 336 336 335 334 330
340 339 339 339 338 339 337 337 338 338 337 336 336 335 333 330 325 321 312 310 314 311 314 319 324 328 327 326 324 318 316 313 313 313 312 313 313 313 313 313 314 315 317 316 319 323 323 322 323 326 329 330 333 335 335 337 338 336 336 335 333 329
340 339 339 339 338 339 338 337 339 339 338 337 336 336 335 331 329 327 317 317 323 315 312 317 321 325 328 329 326 319 315 314 313 312 313 313 312 313 312 313 313 315 317 319 325 330 331 330 326 327 329 329 332 334 335 337 336 336 336 333 330 326
339 339 339 339 338 339 338 338 339 339 338 337 336 336 335 331 327 326 319 319 323 314 309 313 315 319 327 331 329 325 320 318 316 313 313 312 314 313 312 316 316 316 322 327 330 331 332 331 328 329 329 328 332 334 335 337 336 336 335 332 327 324
339 339 338 338 338 338 338 338 339 339 338 338 337 337 335 328 321 318 315 312 314 311 310 311 309 313 321 325 327 328 327 326 325 320 313 313 316 314 316 324 326 326 328 330 331 329 328 327 328 330 326 327 333 334 335 337 336 336 334 332 327 325
339 339 338 338 338 338 338 338 339 338 338 338 338 337 334 323 312 310 310 310 311 311 311 311 310 310 314 314 316 324 326 326 328 325 316 315 316 314 318 325 327 327 328 329 331 329 326 325 328 330 327 329 334 334 335 336 335 335 334 332 330 327
340 339 338 338 338 338 338 338 338 338 338 338 338 337 332 319 309 309 309 310 311 311 310 310 310 310 310 309 309 313 316 318 322 322 317 316 319 317 319 322 321 320 324 329 331 328 327 327 326 328 329 331 334 335 335 335 335 335 333 332 331 329
340 339 338 337 337 338 338 337 337 338 338 338 337 336 332 316 307 309 309 310 311 311 311 310 310 310 309 309 309 309 310 312 313 316 314 315 321 320 319 320 319 318 325 330 330 329 329 329 327 327 330 332 335 335 335 335 335 334 333 331 331 330
339 339 338 338 337 337 337 337 337 337 337 338 337 336 329 312 308 309 309 310 311 312 313 313 313 312 312 310 310 309 309 310 310 312 313 314 317 318 320 323 320 322 328 330 330 330 329 331 332 330 332 335 335 335 335 335 334 333 332 331 330 330
338 339 338 337 337 337 337 337 337 337 337 337 336 335 325 310 308 308 309 311 312 314 315 317 317 316 316 315 314 313 311 310 310 311 312 313 313 314 320 325 325 327 330 330 332 330 330 334 335 335 335 335 335 335 335 333 333 331 330 329 329 329
335 337 337 338 337 337 338 337 337 336 336 337 336 333 324 311 308 308 309 311 313 316 319 321 322 323 323 321 321 321 317 313 311 311 310 311 311 312 316 322 325 327 328 330 332 329 332 336 336 336 336 335 336 334 333 333 331 329 329 329 327 327
336 336 335 336 337 337 337 337 337 336 336 337 335 332 324 312 308 308 309 312 315 318 322 325 327 327 327 327 328 328 325 321 320 318 316 312 311 311 313 320 323 325 326 329 331 330 334 337 336 336 336 335 335 333 331 332 331 329 328 328 327 325
338 337 334 335 336 336 336 336 336 336 337 337 335 332 324 313 307 308 309 313 319 322 324 327 329 329 330 331 330 330 330 329 330 329 328 325 323 321 321 323 326 328 331 332 335 335 336 337 336 335 335 335 333 331 329 330 331 330 328 328 327 325
338 338 335 334 335 335 335 335 335 335 335 335 334 332 325 314 308 308 310 316 321 323 325 328 329 330 331 333 331 330 331 332 333 333 334 334 333 332 330 330 331 333 335 335 337 336 336 337 336 335 335 334 332 331 330 330 331 328 328 329 327 325
338 337 335 334 334 334 333 333 334 334 332 331 332 333 327 316 309 307 314 324 326 323 329 332 331 330 331 333 333 333 333 333 333 333 334 334 333 333 332 333 333 334 335 336 337 336 337 336 335 334 334 332 331 332 332 332 331 327 327 327 325 325
339 338 337 335 334 334 332 330 330 332 331 329 331 333 330 319 310 308 315 327 330 328 332 335 333 331 331 332 334 335 334 333 332 332 333 333 332 333 333 333 334 334 335 336 336 336 336 335 333 333 333 332 331 333 332 331 331 329 328 326 324 323
339 339 339 336 334 334 333 328 327 329 329 329 332 333 332 324 312 308 313 321 329 332 334 336 335 333 332 332 334 335 334 333 332 332 332 332 333 333 333 333 333 333 334 336 336 336 336 334 333 333 332 332 332 332 332 331 330 329 328 326 325 322
340 339 339 338 334 333 334 331 327 328 329 331 334 333 333 328 316 310 310 315 326 333 334 336 336 333 332 333 334 334 334 332 331 332 332 332 332 333 333 333 332 332 333 335 336 336 335 334 333 332 331 331 333 332 331 331 329 328 327 325 324 321
340 340 340 340 337 335 335 333 328 329 331 334 335 335 335 332 321 313 310 311 325 334 335 335 334 330 331 333 334 334 333 330 331 332 331 331 332 332 333 333 332 332 333 334 335 335 334 333 331 330 331 332 332 332 331 330 328 328 326 324 323 320
340 340 340 340 339 337 335 333 330 330 332 335 336 336 337 335 328 319 311 310 321 329 331 331 331 329 330 333 334 334 333 330 330 332 332 332 332 333 333 333 332 332 333 333 333 333 331 331 331 330 331 331 331 330 330 329 328 328 325 322 320 319
339 339 341 340 340 338 335 333 331 330 332 336 337 336 337 337 332 324 316 311 315 321 325 326 329 329 329 331 333 334 333 331 330 332 332 332 333 334 334 332 331 332 332 332 332 331 329 330 331 331 331 330 329 329 328 328 328 327 324 320 319 319
337 338 340 340 340 339 337 333 329 328 332 336 338 337 337 337 335 330 323 317 315 320 324 325 329 329 328 329 331 333 333 330 331 332 332 333 334 334 334 332 330 331 332 330 331 331 330 331 331 331 331 329 328 327 326 326 326 326 323 321 319 317
336 336 338 339 340 340 338 335 328 325 330 335 337 338 336 337 338 334 328 323 321 323 327 329 332 332 329 326 327 332 332 329 329 330 332 333 333 334 334 332 329 330 331 331 331 330 331 331 331 331 330 329 328 327 326 325 323 324 323 322 320 317
334 335 335 337 340 340 339 338 333 327 330 335 338 338 338 337 339 337 331 326 325 327 329 331 333 333 330 324 325 330 331 329 328 329 332 333 334 333 334 332 329 330 330 331 332 331 331 331 331 331 330 328 328 328 328 326 323 323 323 321 320 318
334 334 334 335 337 339 339 339 336 329 331 336 338 338 339 339 339 339 333 329 329 330 331 332 332 331 329 323 325 330 330 330 329 329 331 334 333 333 334 333 331 331 331 332 332 332 332 331 331 331 330 329 328 328 329 326 325 324 322 320 319 318
334 334 334 335 335 336 338 339 337 331 329 334 338 339 339 339 340 339 336 332 331 332 333 334 332 332 330 325 325 328 329 330 331 330 331 334 334 333 333 333 332 332 332 333 333 333 333 332 332 331 330 329 328 328 328 326 326 326 324 321 319 319
335 334 333 334 335 335 335 337 337 335 329 329 334 337 339 340 340 340 338 336 334 334 336 335 333 333 331 328 326 326 329 332 332 331 331 333 333 333 333 333 333 333 334 334 334 333 333 332 331 330 329 329 328 328 328 327 327 326 326 324 321 320
337 336 334 335 336 336 335 334 335 335 332 328 329 335 339 339 339 340 339 338 337 337 337 336 335 334 332 330 328 326 330 333 332 331 332 332 332 333 334 333 334 334 334 334 334 333 333 332 330 329 329 329 328 327 327 327 327 327 327 327 324 320
338 337 336 335 335 337 337 335 333 333 334 332 330 335 339 339 339 340 339 338 339 339 337 336 335 334 332 333 331 327 331 334 332 331 332 332 332 333 334 334 334 334 333 333 333 333 332 332 332 330 329 329 328 327 327 326 326 326 326 327 326 323
337 337 337 337 336 337 339 338 335 333 333 333 332 334 338 340 340 339 339 339 339 339 338 336 335 333 333 334 332 329 331 334 332 331 332 333 333 333 334 335 334 333 333 333 333 333 332 332 332 330 329 329 328 327 327 327 326 327 326 326 326 325
335 336 337 336 336 338 339 338 337 336 334 333 334 333 335 339 340 340 339 339 339 339 338 336 335 334 333 333 332 331 332 334 332 331 332 333 333 333 334 334 334 333 333 333 333 332 331 331 330 330 329 329 329 328 327 327 327 327 327 327 326 325
335 335 335 335 335 338 339 338 339 339 336 334 335 333 335 339 341 340 339 339 339 340 338 337 337 335 334 333 332 332 333 334 333 331 331 332 333 333 333 333 333 333 333 332 331 331 330 330 330 329 329 329 328 328 327 327 327 328 327 326 325 324
333 333 334 334 335 338 339 338 340 341 340 336 335 334 336 340 341 340 339 339 339 339 338 337 337 336 335 333 331 332 333 333 332 331 331 332 333 333 333 333 333 332 332 331 331 330 330 330 328 328 328 329 328 328 328 327 327 327 326 326 324 323
332 331 332 333 336 339 338 338 341 343 342 339 335 335 337 340 341 340 340 339 338 338 338 338 337 336 335 333 331 332 332 332 333 332 331 332 333 333 333 333 332 331 331 330 329 329 329 328 328 328 328 328 328 328 327 327 326 326 325 325 323 323
328 326 324 327 336 340 339 340 342 343 343 342 339 337 336 338 340 339 340 340 338 337 338 338 338 337 336 334 331 332 332 332 333 332 332 332 332 333 333 332 331 330 330 329 327 326 327 327 327 328 327 328 327 327 327 326 326 325 324 324 322 322
324 322 321 324 334 341 341 341 342 343 344 344 341 338 336 337 338 337 340 341 338 337 338 338 337 337 338 334 330 332 332 333 334 333 332 332 332 333 333 332 331 330 330 329 326 324 325 325 325 325 325 326 325 325 325 324 324 324 323 321 319 319
Wind_Speed
17 18 17 17 16 16 16 16 15 14 13 12 12 11 10 10 12 12 11 12 12 14 13 13 14 14 16 19 20 20 20 19 19 18 17 16 16 15 14 13 11 10 8 6 4 2 1 1 1 1 2 3 4 4 3 4 5 5 4 3 4 4
16 18 18 17 16 16 16 16 14 14 13 12 12 12 10 11 12 13 12 12 13 14 12 11 12 12 14 17 19 21 21 20 19 19 18 17 16 15 14 13 11 9 8 6 4 3 2 1 1 1 2 2 3 2 2 4 6 5 5 3 4 5
16 18 19 17 16 16 16 16 15 14 13 13 14 12 10 11 11 12 13 13 13 13 13 12 12 11 13 15 18 21 21 21 20 19 18 17 16 15 14 13 11 9 8 6 4 3 2 2 1 1 1 2 1 0 2 5 5 5 5 4 5 6
16 18 19 18 17 16 16 16 15 14 14 13 14 12 11 11 11 12 13 13 10 13 14 13 13 13 13 13 16 20 22 21 21 20 18 17 16 16 14 13 12 10 8 6 5 5 4 3 2 1 1 1 2 2 3 5 4 4 5 4 5 6
17 19 19 18 17 17 17 16 15 14 14 13 14 12 11 11 11 13 14 13 11 13 15 13 13 13 11 11 11 16 19 18 18 19 18 17 16 16 14 12 11 10 7 6 7 7 7 6 4 3 3 2 3 2 3 5 4 4 3 4 5 5
17 19 19 18 16 17 17 16 15 15 15 15 15 13 11 12 13 15 15 14 13 13 14 13 13 13 12 11 11 11 14 13 12 16 19 17 16 17 14 11 10 9 8 8 8 8 8 7 5 5 4 4 4 3 3 4 4 5 3 4 5 4
17 18 19 18 16 16 17 16 15 16 16 16 16 14 11 13 16 18 16 14 14 14 14 13 13 13 12 13 13 12 12 12 11 14 18 18 17 17 15 13 12 11 10 8 8 8 8 6 5 5 5 5 5 3 4 5 5 5 4 4 4 3
17 18 19 19 17 15 15 16 16 17 17 17 17 13 11 14 17 18 16 15 14 14 14 13 12 12 12 13 14 14 14 13 13 13 16 17 16 16 16 14 14 12 10 7 8 8 7 6 5 6 6 6 6 4 5 6 5 6 6 4 3 3
17 18 19 19 17 14 15 16 17 17 16 17 17 12 11 15 18 18 16 15 15 15 14 13 12 12 12 13 12 13 13 12 13 13 14 16 15 15 15 14 13 11 9 8 8 8 7 6 6 7 7 6 6 4 5 6 6 6 6 4 2 4
18 17 18 18 16 14 15 16 18 17 16 17 15 11 13 17 18 18 17 17 16 15 15 14 13 13 12 12 11 11 11 11 11 12 12 14 14 14 13 11 10 9 8 8 8 8 7 6 6 7 7 6 5 5 5 6 6 6 6 3 2 4
21 17 18 19 17 15 15 15 16 17 16 16 14 12 15 18 19 19 18 18 17 16 15 14 14 13 13 12 12 11 11 11 10 10 11 12 12 12 11 9 9 8 8 8 8 8 7 7 7 6 6 5 6 5 6 8 7 6 5 4 2 4
22 18 18 18 16 15 15 14 15 16 16 15 13 14 16 18 19 20 19 19 18 17 16 15 15 14 13 13 12 11 11 10 10 10 10 10 11 11 11 9 8 8 9 9 9 9 8 7 7 6 6 6 6 6 8 8 7 6 5 4 3 1
20 19 18 18 16 16 14 14 15 16 16 15 13 15 17 18 20 21 20 20 19 18 17 16 15 14 14 13 12 11 11 10 10 9 9 9 9 10 9 9 8 8 9 9 10 10 8 8 7 7 7 7 6 7 7 5 3 6 5 3 2 2
17 18 19 18 16 16 15 14 14 14 14 15 13 15 18 19 21 22 21 21 20 19 18 17 16 15 14 13 13 12 10 10 9 8 8 8 8 8 8 8 8 9 9 9 9 9 8 8 8 8 8 7 7 8 9 5 3 4 3 2 1 0
18 19 20 19 17 16 16 14 14 14 15 17 14 14 18 20 21 23 22 22 21 20 18 17 17 16 13 12 12 11 10 9 9 9 8 8 8 8 8 9 9 9 9 9 8 8 8 8 9 8 9 9 8 8 9 7 4 3 2 3 4 4
19 20 20 20 18 17 17 16 14 14 16 19 16 14 18 21 21 24 23 19 18 19 17 15 16 16 14 12 10 9 10 10 11 11 9 9 9 9 10 10 10 10 10 9 9 8 9 9 9 9 9 9 8 7 9 7 5 4 3 4 5 7
19 19 20 20 19 17 18 19 17 16 16 19 17 14 17 21 22 24 24 18 15 16 14 13 14 15 13 11 10 10 11 12 12 11 10 9 9 9 10 11 11 10 10 10 9 9 9 9 9 9 9 8 7 8 8 7 6 6 5 5 6 9
19 18 18 19 19 17 18 20 19 18 18 19 18 14 16 21 23 25 26 22 16 14 14 13 13 13 13 12 12 12 12 13 12 10 9 9 9 9 9 10 11 10 10 10 9 9 9 9 9 9 8 8 9 9 8 8 7 7 6 5 8 9
21 19 18 19 19 17 17 19 20 18 18 18 17 15 15 20 24 25 26 25 18 14 14 13 12 14 14 14 14 13 13 13 12 10 10 9 9 9 10 10 11 11 10 10 9 10 10 8 8 9 7 9 11 10 9 9 7 8 7 6 9 9
23 21 19 19 19 18 17 18 20 19 18 17 17 16 15 19 25 25 26 26 20 15 15 13 14 15 15 15 14 13 14 13 11 10 10 10 9 9 10 10 10 11 10 10 10 11 10 10 9 8 8 10 11 11 10 9 8 8 9 8 10 9
25 22 20 20 19 18 19 20 20 20 19 17 17 17 15 17 24 26 26 26 22 19 18 16 15 16 16 16 15 14 13 12 11 10 10 9 9 9 10 10 11 11 10 9 9 11 11 11 9 8 10 11 10 11 11 9 9 10 10 9 9 8
26 24 22 22 19 18 20 23 22 21 20 17 17 18 17 17 22 26 26 26 26 24 21 19 17 17 17 16 15 14 14 13 12 11 10 10 10 11 11 11 12 11 11 10 10 11 11 10 9 9 9 9 8 8 10 10 11 12 12 10 10 9
28 26 24 23 20 17 20 24 25 22 20 18 18 19 19 17 19 25 27 25 26 25 21 19 18 17 18 17 16 15 15 14 13 11 10 11 11 12 11 12 13 12 11 11 11 11 11 9 9 9 8 8 7 7 9 11 13 14 13 12 11 10
30 28 26 26 22 18 20 25 27 24 21 19 18 17 20 19 17 23 27 25 26 24 21 20 18 15 17 19 18 16 15 15 14 12 11 11 12 12 12 14 14 13 12 12 12 12 12 11 10 10 9 7 7 7 9 11 11 12 13 14 13 11
31 29 28 29 25 20 20 24 28 27 22 19 19 19 20 20 17 20 26 27 27 25 21 19 18 16 17 19 19 17 16 16 14 13 12 12 13 13 13 14 14 13 12 12 12 12 12 12 11 11 10 7 6 6 8 6 7 8 10 12 12 11
33 32 30 30 27 24 22 22 27 31 26 21 21 21 20 20 19 19 25 29 28 25 22 20 19 18 17 18 18 18 17 15 14 13 12 12 13 14 14 14 14 13 13 12 12 11 11 11 12 12 11 10 9 7 4 3 5 5 7 10 11 11
36 35 34 32 28 27 27 24 26 33 32 25 22 21 18 19 18 18 24 28 28 26 23 22 21 19 18 18 18 19 17 16 15 14 13 13 14 14 14 15 14 13 12 11 11 11 11 11 12 13 13 13 13 12 9 6 7 6 5 9 11 11
38 37 36 35 31 29 30 27 27 31 34 32 28 23 19 18 19 21 23 24 25 24 22 22 21 20 19 19 20 19 18 16 15 14 14 14 14 15 15 14 13 12 12 11 12 11 11 11 12 13 14 15 15 16 14 12 13 11 9 9 10 11
40 39 37 37 35 32 31 31 29 30 33 36 33 25 20 19 20 22 23 22 23 21 20 20 20 20 20 19 20 20 18 17 16 15 15 14 14 15 15 14 13 13 12 12 12 11 11 12 11 12 13 14 14 16 14 12 14 13 12 12 9 10
39 39 39 39 38 35 33 33 32 31 32 35 32 25 22 21 21 22 22 23 23 21 19 19 20 21 21 20 21 20 18 17 17 16 16 15 15 15 15 14 13 13 13 13 12 11 12 12 10 11 12 10 11 13 12 12 13 12 12 13 10 9
36 37 39 39 39 38 36 35 34 33 33 33 32 28 24 22 23 23 24 24 24 22 20 21 23 24 22 21 21 19 18 18 17 17 16 15 16 16 15 14 14 13 13 13 12 12 13 13 12 12 12 11 11 12 12 13 13 12 12 12 11 10
35 37 38 39 41 41 39 38 38 36 35 34 32 32 28 24 24 25 26 26 24 23 22 23 25 25 24 23 21 19 19 18 18 18 17 16 15 15 14 14 14 13 13 14 14 14 14 15 14 13 12 11 11 12 13 13 14 13 12 12 12 12
37 38 37 37 41 43 42 42 40 36 37 36 32 33 30 24 24 26 26 27 27 24 23 23 24 24 25 26 23 21 20 20 19 19 18 17 16 15 15 14 14 13 13 13 14 15 14 13 13 13 12 11 11 12 13 13 13 13 13 12 13 13
39 38 37 38 41 44 44 44 41 35 36 38 35 33 30 23 23 26 24 26 28 25 24 25 25 24 24 25 24 22 21 21 20 19 18 17 16 16 16 14 12 12 12 11 11 12 12 12 12 12 12 12 12 13 13 13 13 13 12 12 13 13
38 35 35 39 40 42 43 42 41 36 34 39 39 35 31 24 22 24 22 23 26 25 24 25 25 25 24 24 24 23 23 22 20 19 17 17 17 16 16 13 11 11 11 10 11 11 11 11 12 12 12 12 11 12 13 13 14 14 13 13 14 13
36 32 32 38 40 40 39 36 36 37 34 38 42 39 35 28 25 25 23 22 25 24 23 22 22 22 22 24 25 23 22 21 20 19 18 18 18 17 16 14 12 12 12 13 14 14 12 11 11 12 11 12 11 11 12 13 13 13 13 14 15 13
36 32 34 42 41 36 34 33 35 36 33 34 41 42 39 34 31 29 24 22 24 23 21 21 22 21 20 23 26 23 22 21 20 20 20 19 19 18 17 15 14 14 14 14 15 16 15 13 13 13 13 13 13 13 13 13 14 16 16 17 16 14
Wind_Direction
184 183 184 184 184 193 194 187 187 186 185 185 185 190 188 184 178 176 174 165 166 172 177 180 179 184 189 188 192 195 194 193 194 194 194 195 197 199 201 205 209 213 214 214 216 208 197 165 125 102 89 69 61 67 85 96 87 81 77 74 79 73
184 184 183 184 183 192 198 187 186 189 188 187 189 195 193 189 182 179 178 169 171 176 180 180 179 187 190 190 195 199 199 197 197 197 198 199 202 203 204 207 211 216 218 221 227 219 222 204 161 124 93 53 57 88 117 101 93 88 87 90 88 76
185 186 183 187 185 189 199 187 186 194 192 194 194 196 194 188 183 183 180 174 177 181 181 183 181 181 185 192 198 201 203 201 200 201 202 204 206 208 208 211 213 216 221 225 218 204 220 236 211 152 70 30 16 236 124 102 101 103 102 102 91 78
186 189 184 189 187 188 197 187 187 197 195 199 201 196 190 188 185 186 186 179 180 183 184 188 185 182 185 192 197 202 205 204 204 204 205 207 210 212 212 215 217 217 220 219 200 189 195 217 235 217 236 282 275 269 120 110 111 115 116 110 90 82
187 191 187 189 188 188 194 188 187 195 196 200 203 198 189 189 186 185 190 186 180 183 187 192 188 184 185 186 191 199 204 206 205 206 207 207 209 214 213 213 220 218 211 203 198 195 195 213 232 217 235 256 259 258 123 119 118 111 115 107 88 80
189 191 190 190 190 187 190 190 188 192 198 200 198 199 192 190 191 189 192 188 182 183 186 191 188 185 186 186 186 188 196 200 200 204 208 204 206 211 206 202 209 208 203 201 203 206 209 218 225 224 248 253 248 242 135 129 122 116 118 104 87 74
190 192 192 191 191 188 188 191 195 195 198 201 198 197 195 194 195 194 193 188 184 184 185 188 186 184 188 190 189 187 193 196 193 201 206 203 208 211 204 201 205 206 206 205 205 212 220 223 217 227 250 247 246 239 151 138 134 131 125 107 93 66
190 192 194 193 191 190 189 191 200 202 198 203 202 195 195 196 198 197 194 187 183 183 183 185 183 182 184 187 191 195 199 200 196 200 204 200 206 210 207 209 214 216 211 203 206 212 217 222 220 229 244 248 248 230 162 147 143 134 124 117 92 54
192 191 194 196 192 191 192 191 200 204 200 206 204 194 196 198 199 198 193 187 183 181 181 182 180 178 180 182 187 192 196 199 196 200 202 199 202 209 210 213 217 219 210 202 211 214 210 216 228 232 237 245 240 203 165 152 143 134 129 125 60 26
193 193 194 197 193 191 195 194 200 204 204 208 203 196 200 199 199 198 194 188 184 181 181 181 180 178 178 178 179 181 184 188 192 195 198 201 205 209 208 210 216 213 208 206 210 215 210 209 222 229 233 234 219 188 162 146 139 137 136 123 19 359
194 194 194 198 195 192 196 196 200 205 208 208 203 201 202 200 200 199 195 190 184 183 184 184 182 180 179 178 177 177 179 182 188 191 194 202 206 206 202 203 207 201 203 205 204 213 208 198 206 216 221 211 200 183 154 151 151 140 130 116 45 350
199 197 194 195 195 194 195 198 200 204 209 208 206 205 203 200 200 200 197 191 187 187 188 189 187 184 183 182 181 181 182 183 188 192 196 201 204 205 202 199 200 196 199 199 203 212 204 198 202 201 201 194 190 169 163 181 172 142 132 121 104 31
201 200 198 195 195 196 195 197 200 203 207 207 207 206 204 202 201 202 198 192 191 192 192 192 191 189 187 187 188 188 187 188 193 200 203 204 208 209 202 200 202 200 202 204 210 215 207 203 204 197 193 190 183 163 173 208 180 148 145 131 130 128
199 199 202 201 195 198 196 197 201 201 203 205 208 206 203 203 203 203 200 194 194 194 195 195 194 193 192 193 195 195 192 192 199 205 208 209 211 213 207 205 206 206 210 209 212 214 204 201 206 201 189 180 176 168 175 191 180 173 167 169 253 207
211 206 207 206 198 200 199 197 201 201 204 208 209 205 204 206 205 204 202 198 197 196 196 196 198 197 197 201 201 200 199 198 203 204 208 211 211 213 213 214 213 210 209 202 202 205 197 199 207 199 184 176 177 183 191 193 180 172 216 264 288 300
222 218 214 211 204 204 205 203 202 203 209 213 211 206 206 208 206 205 202 200 199 197 196 194 199 201 200 205 205 203 205 205 207 204 206 213 215 217 217 220 219 212 206 195 194 198 193 203 207 195 189 182 180 201 208 202 187 187 238 267 286 295
224 223 220 216 207 204 208 210 209 207 211 216 213 206 209 210 208 207 203 201 199 195 195 194 198 203 202 206 206 207 211 211 211 209 209 215 218 221 223 225 221 215 207 192 190 194 193 208 208 197 200 188 187 211 213 211 214 226 251 271 287 295
225 225 223 221 210 203 209 213 213 213 214 216 214 207 210 213 211 209 206 205 201 194 196 195 196 201 202 207 210 213 217 214 212 213 215 217 216 219 222 225 222 217 209 194 191 191 196 218 207 193 199 190 198 212 212 220 232 242 255 276 287 289
225 224 223 223 214 205 205 211 213 212 213 214 213 209 209 213 214 213 209 207 204 197 198 197 198 203 202 208 214 216 219 214 210 213 217 216 215 218 217 219 221 218 210 197 190 188 195 216 198 188 199 192 202 215 215 220 233 246 250 268 282 282
224 219 217 218 213 205 201 207 211 209 209 209 207 207 208 212 215 215 212 209 205 199 200 199 202 208 208 210 215 217 219 215 211 215 220 218 215 217 215 216 218 215 211 202 196 195 197 205 199 201 208 195 202 215 217 220 232 250 253 261 275 278
224 216 213 215 209 205 203 205 208 206 205 206 204 205 206 210 214 216 215 211 208 205 207 209 207 208 210 213 215 218 220 217 214 215 220 220 214 214 213 213 215 212 209 206 206 208 207 209 210 214 208 196 203 213 215 219 231 248 252 253 261 264
229 222 216 217 212 206 207 207 208 207 204 204 204 204 205 209 213 216 217 213 211 210 210 216 215 208 208 215 217 219 221 220 217 217 216 215 213 214 213 213 215 211 207 207 209 217 220 215 211 213 204 196 210 221 223 228 233 242 243 243 250 253
231 229 223 221 215 207 210 213 214 211 205 201 205 207 207 210 211 215 218 215 214 213 209 213 219 211 206 213 219 219 222 223 221 218 214 212 214 215 214 216 215 210 208 207 211 220 221 211 204 202 193 197 212 217 232 245 246 247 246 244 246 246
228 231 230 229 222 211 215 223 223 219 210 203 204 208 212 212 210 214 218 217 215 213 207 207 214 213 207 210 217 221 224 227 225 220 213 211 217 217 216 219 214 209 209 207 212 221 219 214 210 198 190 201 208 213 238 246 242 248 251 248 247 243
225 229 232 233 228 218 216 221 223 220 213 206 205 206 211 212 209 212 217 218 215 212 208 208 212 216 214 210 216 223 227 229 227 223 216 212 217 218 219 220 213 209 210 207 210 220 221 223 222 212 206 206 201 223 249 225 204 239 254 247 245 247
224 226 229 232 231 227 221 215 218 218 211 205 205 207 209 209 208 209 214 217 216 213 212 215 215 219 220 215 217 223 225 225 224 224 220 216 217 216 216 216 211 208 207 207 211 216 221 227 229 228 227 225 225 240 253 185 190 236 249 239 238 247
223 223 225 228 228 228 226 219 218 221 217 210 206 207 209 209 208 210 214 216 217 216 214 214 214 217 221 220 220 222 222 221 222 223 221 217 216 213 213 214 210 208 205 206 211 214 219 227 233 236 238 240 243 250 247 229 239 247 236 228 227 244
223 223 225 226 224 225 228 226 222 222 221 218 215 211 209 210 209 211 214 215 216 216 214 214 212 214 218 220 222 222 219 220 220 222 222 219 217 213 212 213 210 209 208 208 212 216 221 224 233 242 247 247 246 252 254 246 251 256 258 248 220 228
224 225 225 226 224 223 227 231 229 227 225 223 221 214 210 212 211 212 215 214 214 212 212 214 212 214 217 219 225 222 216 219 220 221 223 221 218 213 210 211 210 209 210 213 214 218 222 224 230 237 245 250 246 247 251 249 253 254 259 265 239 214
226 226 226 227 226 224 226 230 231 232 230 225 219 212 209 213 213 213 215 215 215 212 210 212 213 216 218 219 225 223 216 218 220 220 222 220 217 213 210 212 213 213 214 216 220 222 226 227 230 230 232 240 240 238 239 242 249 249 247 255 257 232
230 229 227 228 228 225 225 228 231 233 233 228 222 214 209 212 216 214 213 214 216 215 213 216 220 221 220 220 223 221 218 219 220 219 220 218 217 214 211 212 216 220 221 221 225 229 231 230 229 230 228 228 231 234 234 235 239 240 239 240 250 249
232 231 229 229 229 226 224 227 230 232 233 231 226 222 216 212 217 217 214 215 217 217 217 219 224 225 223 221 220 218 218 219 219 220 219 217 216 213 211 211 214 221 224 225 226 229 232 231 227 226 228 229 231 232 232 236 238 234 235 238 242 249
233 232 230 230 230 228 226 226 227 228 231 231 229 229 224 213 215 219 216 216 218 217 219 220 221 223 223 222 218 216 218 218 218 220 219 217 215 214 214 213 215 220 225 229 231 230 229 227 226 223 225 230 229 230 232 235 240 238 236 237 237 248
237 235 232 231 230 229 228 226 224 223 227 232 233 231 225 211 212 218 215 217 220 218 220 223 222 222 223 223 220 217 218 219 220 223 221 219 217 216 217 216 219 225 227 231 232 229 225 223 224 221 220 226 224 227 233 233 236 236 233 234 235 244
241 241 241 238 232 229 229 227 222 220 223 231 234 232 227 216 212 216 213 216 220 218 220 223 224 224 222 222 221 219 219 220 221 223 220 218 219 218 220 219 220 226 230 234 232 226 222 221 223 222 220 224 226 229 232 232 232 230 228 235 239 239
242 246 249 246 237 230 229 226 221 220 220 226 231 232 229 222 219 221 215 214 221 219 219 221 220 220 219 221 223 221 220 219 219 221 219 219 221 221 223 222 222 230 237 241 237 229 224 221 222 225 224 225 229 232 233 232 230 227 227 231 233 231
243 243 247 248 240 229 226 225 223 222 217 219 226 230 232 229 227 226 217 213 221 220 215 216 217 216 213 218 223 221 219 217 217 220 220 220 222 221 223 225 227 235 241 243 238 231 229 228 230 232 232 233 233 229 229 229 226 224 225 227 225 223